Probability
0 0 0 0 0 0 0 0 0 0 0 0 0 0 0 0 0 0 0 0 0 0 0 0 0 0 0 0 0 0 0 0 0 0 0 0 0 0 0 0 0 0 0 0 0 0 0 0 0
0 0 0 0 0 0 0 0 0 0 0 0 0 0 0 0 0 0 0 0 0 0 0 0 0 0 0 0 0 0 0 0 0 0 0 0 0 0 0 0 0 0 0 0 0 0 0 0 0
0 0 0 0 0 0 0 0 0 0 0 0 0 0 0 0 0 0 0 0 0 0 0 0 0 0 0 0 0 0 0 0 0 0 0 0 0 0 0 0 0 0 0 0 0 0 0 0 0
0 0 0 0 0 0 0 0 0 0 0 0 0 0 0 0 0 0 0 0 0 0 0 0 0 0 0 0 0 0 0 0 0 0 0 0 0 0 0 0 0 0 0 0 0 0 0 0 0
0 0 0 0 0 0 0 0 0 0 0 0 0 0 0 0 0 0 0 0 0 0 0 0 0 0 0 0 0 0 0 0 0 0 0 0 0 0 0 0 0 0 0 0 0 0 0 0 0
0 0 0 0 0 0 0 0 0 0 0 0 0 0 0 0 0 0 0 0 0 0 0 0 0 0 0 0 0 0 0 0 0 0 0 0 0 0 0 0 0 0 0 0 0 0 0 0 0
0 0 0 0 0 0 0 0 0 0 0 0 0 0 0 0 0 0 0 0 0 0 0 0 0 0 0 0 0 0 0 0 0 0 0 0 0 0 0 0 0 0 0 0 0 0 0 0 0
0 0 0 0 0 0 0 0 0 0 0 0 0 0 0 0 0 0 0 0 0 0 0 0 0 0 0 0 0 0 0 0 0 0 0 0 0 0 0 0 0 0 0 0 0 0 0 0 0
0 0 0 0 0 0 0 0 0 0 0 0 0 0 0 0 0 0 0 0 0 0 0 0 0 0 0 0 0 0 0 0 0 0 0 0 0 0 0 0 0 0 0 0 0 0 0 0 0
0 0 0 0 0 0 0 0 0 0 0 0 0 0 0 0 0 0 0 0 0 0 0 0 0 0 0 0 0 0 0 0 0 0 0 0 0 0 0 0 0 0 0 0 0 0 0 0 0
0 0 0 0 0 0 0 0 0 0 0 0 0 0 0 0 0 0 0 0 0 0 0 0 0 0 0 0 0 0 0 0 0 0 0 0 0 0 0 0 0 0 0 0 0 0 0 0 0
0 0 0 0 0 0 0 0 0 0 0 0 0 0 0 0 0 0 0 0 0 0 0 0 0 0 0 0 0 0 0 0 0 0 0 0 0 0 0 0 0 0 0 0 0 0 0 0 0
0 0 0 0 0 0 0 0 0 0 0 0 0 0 0 0 0 0 0 0 0 0 0 0 0 0 0 0 0 0 0 0 0 0 0 0 0 0 0 0 0 0 0 0 0 0 0 0 0
0 0 0 0 0 0 0 0 0 0 0 0 0 0 0 0 0 0 0 0 0 0 0 0 0 0 0 0 0 0 0 0 0 0 0 0 0 0 0 0 0 0 0 0 0 0 0 0 0
0 0 0 0 0 0 0 0 0 0 0 0 0 0 0 0 0 0 0 0 0 0 0 0 0 0 0 0 0 0 0 0 0 0 0 0 0 0 0 0 0 0 0 0 0 0 0 0 0
0 0 0 0 0 0 0 0 0 0 0 0 0 0 0 0 0 0 0 0 0 0 0 0 0 0 0 0 0 0 0 0 0 0 0 0 0 0 0 0 0 0 0 0 0 0 0 0 0
0 0 0 0 0 0 0 0 0 0 0 0 0 0 0 0 0 0 0 0 0 0 0 0 0 0 0 0 0 0 0 0 0 0 0 0 0 0 0 0 0 0 0 0 0 0 0 0 0
0 0 0 0 0 0 0 0 0 0 0 0 0 0 0 0 0 0 0 0 0 0 0 0 0 0 0 0 0 0 0 0 0 0 0 0 0 0 0 0 0 0 0 0 0 0 0 0 0
0 0 0 0 0 0 0 0 0 0 0 0 0 0 0 0 0 0 0 0 0 0 0 0 0 0 0 0 0 0 0 0 0 0 0 0 0 0 0 0 0 0 0 0 0 0 0 0 0
0 0 0 0 0 0 0 0 0 0 0 0 0 0 0 0 0 0 0 0 0 0 0 0 0 0 0 0 0 0 0 0 0 0 0 0 0 0 0 0 0 0 0 0 0 0 0 0 0
0 0 0 0 0 0 0 0 0 0 0 0 0 0 0 0 0 0 0 0 0 0 0 0 0 0 0 0 0 0 0 0 0 0 0 0 0 0 0 0 0 0 0 0 0 0 0 0 0
0 0 0 0 0 0 0 0 0 0 0 0 0 0 0 0 0 0 0 0 0 0 0 0 0 0 0 0 0 0 0 0 0 0 0 0 0 0 0 0 0 0 0 0 0 0 0 0 0
0 0 0 0 0 0 0 0 0 0 0 0 0 0 0 0 0 0 0 0 0 0 0 0 0 0 0 0 0 0 0 0 0 0 0 0 0 0 0 0 0 0 0 0 0 0 0 0 0
0 0 0 0 0 0 0 0 0 0 0 0 0 0 0 0 0 0 0 0 0 0 0 0 0 0 0 0 0 0 0 0 0 0 0 0 0 0 0 0 0 0 0 0 0 0 0 0 0
0 0 0 0 0 0 0 0 0 0 0 0 0 0 0 0 0 0 0 0 0 0 0 0 0 0 0 0 0 0 0 0 0 0 0 0 0 0 0 0 0 0 0 0 0 0 0 0 0
0 0 0 0 0 0 0 0 0 0 0 0 0 0 0 0 0 0 0 0 0 0 0 0 0 0 0 0 0 0 0 0 0 0 0 0 0 0 0 0 0 0 0 0 0 0 0 0 0
0 0 0 0 0 0 0 0 0 0 0 0 0 0 0 0 0 0 0 0 0 0 0 0 0 0 0 0 0 0 0 0 0 0 0 0 0 0 0 0 0 0 0 0 0 0 0 0 0
0 0 0 0 0 0 0 0 0 0 0 0 0 0 0 0 0 0 0 0 0 0 0 0 0 0 0 0 0 0 0 0 0 0 0 0 0 0 0 0 0 0 0 0 0 0 0 0 0
0 0 0 0 0 0 0 0 0 0 0 0 0 0 0 0 0 0 0 0 0 0 0 0 0 0 0 0 0 0 0 0 0 0 0 0 0 0 0 0 0 0 0 0 0 0 0 0 0
0 0 0 0 0 0 0 0 0 0 0 0 0 0 0 0 0 0 0 0 0 0 0 0 0 0 0 0 0 0 0 0 0 0 0 0 0 0 0 0 0 0 0 0 0 0 0 0 0
Wind_Speed
4 2 3 4 6 4 3 6 4 2 1 1 4 9 9 6 4 4 3 11 13 14 12 16 19 18 18 17 17 16 15 14 13 13 13 13 13 13 13 13 13 13 13 14 14 14 13 13 13
1 2 4 5 5 1 5 5 4 5 5 5 5 7 6 3 2 8 7 12 17 15 11 13 19 19 18 18 17 16 15 14 14 13 13 13 12 12 12 12 12 12 13 13 13 13 12 12 12
1 1 4 4 3 5 5 4 6 3 4 4 4 4 7 7 6 8 9 16 15 13 11 14 20 19 19 18 17 17 16 15 14 13 13 12 12 12 12 12 12 12 12 12 11 11 11 11 10
3 4 4 3 5 7 6 5 4 4 1 3 6 6 3 4 8 8 16 17 16 12 10 14 20 20 19 18 18 17 16 15 14 14 13 12 12 11 11 11 11 10 10 10 10 10 10 9 9
4 4 2 2 5 5 5 6 5 5 4 3 6 6 2 2 5 14 19 18 17 13 10 13 20 20 19 19 18 17 16 16 15 14 13 12 12 11 10 10 9 9 9 9 8 9 8 8 8
4 4 2 3 6 5 4 5 5 4 3 3 7 6 1 1 11 15 17 17 16 15 12 12 20 20 20 19 18 17 17 16 15 14 13 12 12 11 10 9 8 8 7 7 7 7 7 7 7
4 3 3 4 4 5 5 4 6 5 4 6 9 8 2 3 7 11 12 13 13 13 12 9 11 14 18 19 18 18 17 16 15 14 13 12 12 11 10 9 8 7 6 6 5 5 5 5 5
4 3 2 3 4 6 4 3 4 7 5 4 7 11 8 9 8 9 10 10 11 10 10 9 8 9 9 11 16 17 16 16 15 14 12 12 11 10 9 8 7 6 5 4 3 2 2 3 4
4 3 3 4 4 5 3 2 2 3 5 3 3 7 8 14 12 12 9 8 10 11 10 9 9 8 8 8 12 13 14 14 13 11 12 10 5 4 5 6 7 6 5 3 2 0 1 2 4
4 4 7 5 3 3 2 1 2 3 4 3 3 3 8 15 16 16 15 16 15 15 13 11 11 10 9 8 7 6 6 7 6 5 6 4 4 3 4 6 7 6 4 2 2 2 2 2 2
6 7 6 5 4 2 2 1 0 5 3 5 7 8 12 13 14 16 17 18 18 17 15 13 12 11 10 7 6 4 4 4 5 6 6 5 4 3 3 2 2 2 2 1 2 2 2 1 1
5 6 6 4 3 2 3 2 1 3 6 5 9 15 16 16 17 17 18 16 13 15 16 14 13 12 11 8 7 6 5 5 5 6 7 5 3 3 3 2 2 2 1 1 1 1 2 1 1
7 6 6 6 5 4 3 3 3 4 5 3 7 12 15 16 16 15 14 13 12 16 16 16 15 14 12 9 7 8 7 7 6 6 6 6 5 4 4 3 2 2 2 2 1 1 0 1 1
7 8 8 8 7 5 5 5 3 7 4 3 8 12 14 16 16 12 10 11 14 16 17 16 16 15 13 11 9 8 8 7 7 6 7 8 6 5 4 3 3 3 2 2 2 1 1 1 1
5 5 6 7 7 5 4 8 9 9 4 5 8 11 13 14 13 14 15 15 16 17 17 17 18 16 15 13 11 9 8 8 7 7 7 8 7 6 5 4 3 3 3 3 2 1 1 1 2
3 4 7 7 6 6 7 11 11 8 6 9 9 9 11 13 14 15 15 14 15 14 16 17 16 16 16 13 11 8 8 8 7 7 6 8 8 7 5 4 3 3 3 2 2 1 1 2 2
3 6 7 6 6 7 9 10 10 6 7 10 10 10 11 12 12 14 14 15 15 16 17 17 16 17 16 14 10 9 8 8 7 7 6 7 8 7 6 4 4 4 3 2 2 2 2 1 1
8 7 6 8 5 7 9 11 11 7 7 10 10 10 10 12 15 14 15 15 15 16 17 18 16 16 14 11 8 7 7 7 7 7 7 8 7 7 6 4 5 5 4 3 2 2 2 1 1
7 6 7 7 6 6 10 14 14 11 8 10 10 10 11 13 13 11 12 13 12 13 15 17 16 15 13 11 10 10 9 8 7 6 8 9 8 8 7 5 5 5 4 4 4 3 2 1 1
8 8 8 6 5 6 8 13 12 11 10 11 12 13 13 12 10 9 9 10 13 16 17 17 17 17 16 13 11 8 7 5 6 6 7 9 9 8 7 7 6 5 4 4 4 3 2 1 2
13 13 11 7 3 2 3 9 9 9 9 9 10 11 11 14 13 11 10 12 13 15 18 17 18 17 16 12 8 7 5 4 4 6 6 7 9 9 8 8 7 6 5 5 4 4 5 2 1
17 12 10 9 5 5 4 7 9 8 8 10 11 11 12 12 12 10 10 11 13 15 15 16 16 15 15 14 13 15 10 8 8 7 6 7 8 9 8 8 8 7 5 5 5 4 4 4 2
9 8 9 9 8 7 5 6 9 6 9 11 12 13 12 11 11 11 11 12 12 12 13 13 14 14 14 15 16 15 9 7 5 6 7 7 6 8 8 8 8 7 5 6 6 5 4 3 4
7 5 3 2 3 11 12 9 10 8 11 9 10 10 11 10 9 9 8 8 8 8 9 11 13 13 14 15 15 15 13 10 10 9 9 7 5 5 7 8 7 7 6 6 6 5 5 4 4
10 8 5 5 7 11 8 10 12 11 11 12 12 11 10 8 7 7 8 8 9 10 10 11 14 13 14 15 15 15 15 15 14 12 11 9 6 5 8 7 7 7 6 6 6 5 5 5 4
16 15 11 10 8 5 6 12 11 11 10 10 10 9 8 7 7 8 9 10 10 11 11 12 13 12 14 15 14 13 13 11 9 11 10 11 8 7 9 8 8 7 7 7 6 4 4 4 4
15 15 9 5 3 3 7 7 9 5 6 7 8 8 9 9 8 8 8 8 9 10 11 13 13 12 13 13 12 12 12 11 11 10 9 8 7 6 9 9 8 8 8 7 7 4 4 4 4
12 12 7 8 9 8 6 7 7 7 10 9 9 10 9 7 7 7 7 8 8 9 9 9 10 12 11 12 12 10 11 11 11 10 11 10 9 8 10 9 9 8 7 7 6 5 4 5 4
11 12 9 8 6 8 6 9 10 11 12 12 12 11 10 9 9 8 7 6 6 6 7 8 8 8 9 11 10 10 10 10 11 11 11 11 10 10 11 10 9 9 8 7 6 6 5 5 4
11 12 13 13 9 8 6 10 6 9 10 11 11 10 9 9 8 7 7 6 7 7 8 8 9 9 9 10 9 10 10 10 11 10 11 11 11 10 10 10 9 9 8 8 8 7 6 6 6
Wind_Direction
315 13 77 60 58 56 242 244 218 206 161 167 110 106 113 116 143 158 141 142 141 149 157 156 153 150 146 141 136 131 128 125 121 116 112 107 103 100 96 93 89 87 84 81 78 76 75 74 74
4 52 62 63 93 171 256 240 205 205 177 149 101 98 95 91 116 125 131 152 146 150 152 153 154 151 147 143 139 136 133 131 126 122 117 112 108 104 101 97 94 91 87 84 81 79 76 74 74
349 91 87 84 148 197 231 223 192 199 187 133 93 88 129 148 151 158 159 149 144 148 150 157 155 152 149 146 143 140 138 135 131 127 122 117 113 109 105 102 98 94 90 86 83 79 76 73 72
57 48 60 92 233 230 217 224 178 140 109 88 109 92 122 162 170 161 145 146 144 148 151 160 157 156 153 151 148 146 144 140 137 132 128 124 120 114 109 106 103 98 93 88 84 79 74 70 69
65 78 73 265 248 249 224 218 186 151 156 128 111 114 108 351 139 138 145 149 149 151 155 162 160 159 156 154 153 152 148 145 142 137 134 131 126 122 117 113 109 103 97 91 86 80 74 69 66
65 78 122 239 252 262 243 208 169 164 165 135 117 118 133 95 138 149 151 152 153 155 157 162 163 162 160 159 157 155 153 151 147 144 141 137 134 132 128 124 119 113 107 101 92 85 77 69 62
127 126 202 230 252 264 243 201 161 165 167 176 139 121 145 172 161 148 147 146 150 154 156 160 163 164 163 161 160 160 158 156 153 151 148 145 143 141 137 135 131 126 117 109 97 84 71 57 45
149 126 239 240 228 247 237 185 170 159 177 162 132 142 180 196 159 132 132 141 149 156 159 158 158 159 160 161 163 163 163 161 160 156 152 152 151 149 148 146 147 143 136 125 111 91 56 27 10
121 109 228 230 215 243 257 180 174 155 124 100 127 175 183 150 139 132 134 144 158 165 168 163 160 159 156 159 167 165 166 167 164 159 158 154 146 146 151 164 166 163 160 157 156 115 2 350 337
134 183 224 225 216 242 296 212 176 115 108 94 55 53 125 144 152 156 163 168 173 177 178 173 168 164 161 167 164 162 162 163 158 155 157 151 155 167 173 190 185 182 184 204 236 274 311 334 330
176 202 228 255 262 271 300 303 230 134 169 181 172 160 149 160 165 171 176 179 181 178 178 178 175 170 169 167 162 162 157 156 158 162 162 159 161 175 180 181 200 202 207 248 291 312 321 314 289
208 232 224 241 255 259 254 273 297 179 203 193 177 163 163 172 180 183 184 185 179 177 183 179 177 174 174 169 169 167 165 167 170 174 171 163 166 177 178 187 196 197 199 220 257 289 299 309 296
231 249 246 241 240 228 230 237 239 249 243 194 157 162 176 184 191 194 189 181 176 182 184 181 179 178 176 172 174 174 175 176 177 178 179 172 172 180 183 192 194 197 191 195 202 228 295 359 3
223 232 251 253 248 240 231 248 228 246 233 174 167 181 193 195 197 194 189 186 186 187 186 181 182 181 177 179 179 179 180 179 178 182 183 179 176 177 179 184 188 192 188 186 175 168 116 42 24
219 240 264 248 229 228 218 261 239 238 232 222 206 202 204 208 203 200 198 195 192 190 185 183 183 181 181 181 181 179 181 179 182 184 184 181 179 179 175 175 181 186 176 159 138 114 82 54 33
189 209 241 251 214 206 180 248 253 244 224 235 229 217 214 218 213 211 206 201 196 189 185 185 183 182 183 182 180 178 178 179 182 181 181 182 181 177 169 168 177 173 150 138 133 112 85 51 31
211 207 221 253 220 191 190 237 253 242 214 233 236 228 222 224 225 220 212 205 197 191 186 184 183 182 183 180 177 174 174 178 179 178 180 182 179 173 165 167 169 155 136 133 131 99 109 80 355
202 202 210 219 229 188 209 236 251 250 218 230 237 236 230 228 228 220 213 206 199 192 187 185 183 181 178 173 167 167 172 177 177 180 182 179 175 169 161 160 159 149 136 135 128 115 89 87 1
184 193 218 230 226 194 223 238 245 244 235 237 237 237 236 236 236 225 214 202 193 188 185 184 182 179 174 176 176 178 183 181 180 183 181 178 171 167 161 157 156 153 152 158 149 127 105 60 33
212 222 233 257 244 211 236 249 249 243 233 230 230 231 233 237 241 231 213 196 190 188 187 185 184 181 181 182 181 178 169 172 176 177 179 177 171 168 166 162 162 159 149 149 147 135 125 88 65
215 217 224 234 291 286 267 277 261 257 240 240 235 231 233 231 231 224 208 198 191 190 188 186 186 183 182 172 159 143 131 128 163 180 180 180 172 168 166 167 161 161 156 161 162 151 144 145 80
224 213 211 221 231 255 218 267 266 249 256 246 242 240 238 235 228 219 205 196 194 194 188 186 183 181 179 170 170 170 176 180 184 176 172 171 172 168 167 165 162 163 159 159 162 155 147 142 153
211 188 202 216 220 244 238 247 267 247 245 246 242 241 239 232 222 216 206 199 195 189 183 183 179 179 177 177 177 178 179 172 154 155 162 167 171 170 168 164 162 162 160 161 157 152 151 150 158
175 146 175 209 207 241 227 222 263 224 220 232 237 236 234 228 218 215 207 191 185 179 177 175 177 180 178 179 179 181 176 164 161 166 171 172 168 170 172 165 164 164 162 164 163 161 160 160 158
172 158 185 210 218 239 208 215 246 229 219 218 227 231 230 219 204 200 191 183 179 176 176 176 178 180 179 180 181 183 179 175 177 175 176 174 173 178 181 168 168 167 166 165 159 159 165 165 166
192 180 187 196 206 236 196 224 245 236 227 224 224 222 217 209 205 201 196 189 184 181 178 177 180 179 179 181 183 181 178 179 182 179 177 182 185 182 174 171 170 168 165 164 160 158 170 169 176
188 200 183 160 184 211 233 253 283 244 226 221 216 210 210 208 204 202 197 189 184 181 182 180 180 178 180 181 178 178 179 179 179 178 176 179 177 170 171 171 170 168 167 165 162 168 176 175 186
187 174 165 181 186 222 249 235 230 216 213 213 211 210 213 207 202 201 196 190 185 182 179 176 178 180 178 177 179 181 181 180 176 175 179 179 174 171 170 171 171 170 170 169 166 170 179 181 193
176 184 177 175 189 187 225 247 216 210 206 205 213 210 203 199 198 198 196 188 178 171 170 173 175 172 174 177 178 176 178 175 174 179 181 178 175 172 175 175 173 174 175 174 174 183 181 190 202
186 189 178 188 201 193 203 255 240 214 210 201 207 209 200 196 193 189 183 174 173 176 177 179 178 178 179 177 175 176 173 171 175 179 178 174 174 176 176 172 173 177 179 179 182 188 190 195 205